Simultaneous Nadir Overpasses (SNOs) Predictions

Prediction of SNOs between GOES-15 and METOP-B Satellite Orbit:

Table of predicted SNOs for the next 14.0 days since TLE Epoch: 12/19/2020
Index Date Time (GOES-15) GOES-15 Lat,Lon METOP-B Lat,Lon Distance(km) Time Diff (sec)
1 12/19/2020 05:55:19 -0.23,-128.24 0.29,-125.97 259.86 80
2 12/20/2020 18:11:32 0.21,-128.24 0.76,-130.53 261.51 80
3 12/21/2020 17:53:33 0.23,-128.24 -0.37,-125.54 308.45 80
4 12/23/2020 06:09:56 -0.21,-128.27 -0.61,-130.15 213.23 80
5 12/24/2020 05:51:56 -0.23,-128.28 0.46,-125.14 356.73 80
6 12/25/2020 18:08:09 0.20,-128.27 0.52,-129.72 165.06 80
7 12/26/2020 17:50:10 0.22,-128.27 -0.55,-124.71 404.30 80
8 12/28/2020 06:06:32 -0.19,-128.28 -0.43,-129.32 118.87 80
9 12/29/2020 05:48:34 -0.21,-128.28 0.70,-124.33 450.34 80
10 12/30/2020 18:04:46 0.19,-128.26 0.33,-128.90 72.45 80
11 12/31/2020 17:46:47 0.21,-128.25 -0.74,-123.89 496.17 80
